Location: Wellington
(41.3000°S, 174.7830°E)
Time: 03:29:54
(UTC+13:00)

Cosmos 2181 Rocket - Pass Details

Date: 24 January 2019
Orbit: 952 x 1015 km, 82.9° (Epoch: 15 February)

Event Time Altitude Azimuth Distance (km) Brightness Sun altitude
Rises 23:29:41 0° 185° (S) 3,674 8.1 -23.1°
Reaches altitude 10° 23:32:15 10° 181° (S) 2,727 7.1 -23.3°
Maximum altitude 23:38:26 62° 100° (E) 1,094 4.1 -23.9°
Enters shadow 23:39:47 50° 50° (NE) 1,226 4.1 -24.0°
